www.pogodaiklimat.ru

Погода и климат >> Архив погоды >> Канада >> Resolute Airport


ПОГОДА в Resolute Airport

  • Прогноз погоды в Resolute Airport
  • Монитор погоды в Resolute Airport
  • Климат города

АРХИВ ПОГОДЫ в Resolute Airport

Время (UTC), дата Ветер
(напр.,м/с)
 
Видим.   Явления Облачность Т
(С)
Тd
(С)
f
(%)
Тe
(С)
Тes
(С)
Комфортность P
(гПа)
Po
(гПа)
Тmin
(С)
Tmax
(С)
R
(мм)
R24
(мм)
S
(см)
12 17.04 ЮВ 5 16 км ледяные иглы {снег} 1/1 300 м
[Sc Ac trans Ci fib]
-24.8 -28.2 73 -36 -36 опасность
обморожения
1021.1 1011.7 -25.6 -21.6 0.0
15 17.04 Ю 5 14 км 6/6 600 м
[]
-23.6 -27.4 71 -35 -34 опасность
обморожения
1021.5 1012.1
18 17.04 Ю 5 14 км ледяные иглы {снег} 5/3 600 м
[Sc As trans]
-22.5 -26.5 70 -33 -32 опасность
обморожения
1022.4 1013.0 -25.6 -22.4 0.0 27
21 17.04 Ю 5 14 км 8/8 1000 м
[]
-22.0 -26.0 70 -32 -32 опасность
обморожения
1023.5 1014.1
00 18.04 ЮВ 5 16 км ледяные иглы {снег} 5/5 1000 м
[Sc]
-21.2 -25.4 69 -31 -31 опасность
обморожения
1024.0 1014.6 -25.6 -21.2 0.0 27
03 18.04 ЮВ 5 16 км 6/6 600 м
[]
-24.8 -28.3 73 -36 -36 опасность
обморожения
1024.4 1015.0
06 18.04 ЮВ 5 14 км ледяные иглы {снег} 10/10 1000 м
[Sc]
-23.7 -27.0 74 -34 -34 опасность
обморожения
1024.6 1015.2 -25.6 -21.2 0.0 9
09 18.04 ЮВ 6 14 км 3/3 1000 м
[]
-23.6 -26.8 75 -35 -35 опасность
обморожения
1024.4 1015.0
12 18.04 В 6 24 км ледяные иглы {снег} 1/0
[Ci fib]
-22.8 -26.1 74 -35 -34 опасность
обморожения
1024.0 1014.6 -24.9 -21.2 0.0
15 18.04 ЮВ 5 19 км 6/6 1000 м
[]
-22.0 -26.2 69 -33 -32 опасность
обморожения
1022.9 1013.5
18 18.04 В 9 8000 м ледяные иглы {снег} 10/1 1000 м
[Sc As trans]
-18.7 -22.7 71 -31 -31 опасность
обморожения
1021.5 1012.2 -24.9 -18.7 0.0 27
21 18.04 В 12 4800 м 6/6 1000 м
[]
-17.9 -21.8 71 -32 -32 опасность
обморожения
1019.7 1010.4
00 19.04 В 14 400 м ледяные иглы {снег, метель} 9/4 200 м
[Sc As op]
-18.4 -21.4 77 -33 -33 опасность
обморожения
1016.6 1007.3 -23.9 -17.8 0.0 25
03 19.04 В 15 400 м 5/5 300 м
[]
-16.8 -19.5 80 -32 -32 опасность
обморожения
1013.4 1004.2
06 19.04 В 17 400 м ледяные иглы {снег} 1/1 300 м
[Sc]
-16.0 -18.5 81 -31 -31 опасность
обморожения
1010.1 1001.0 -23.9 -16.0 0.0 63
09 19.04 В 19 200 м н/о -15.2 -17.5 83 -31 -31 опасность
обморожения
1007.0 997.9
12 19.04 0 200 м слабый снег н/о -14.2 -16.5 83 1003.6 994.6 -16.0 0.0
18 19.04 0 слабый снег н/о 0.0
21 19.04 0 <100 м н/о -9.8 -11.6 87 999.8 990.9
00 20.04 В 18 200 м слабый снег н/о -9.7 -11.6 86 -23 -23 999.4 990.5 0.0
03 20.04 Ю 9 1000 м 10/10 300 м
[]
-13.7 -15.9 83 -25 -25 1003.3 994.3
15 20.04 Ю 7 24 км ясно -24.0 -27.8 71 -37 -36 опасность
обморожения
1013.0 1003.8
18 20.04 Ю 6 24 км ледяные иглы {снег} 6/1 600 м
[Sc Cs]
-22.9 -27.2 68 -34 -33 опасность
обморожения
1014.4 1005.1 50 31
21 20.04 Ю 9 24 км 3/0
[]
-21.5 -25.5 70 -35 -35 опасность
обморожения
1014.2 1004.9
00 21.04 Ю 6 24 км ледяные иглы {снег} 10/0
[Ac trans Ci fib]
-21.8 -25.7 71 -33 -33 опасность
обморожения
1013.7 1004.4 0.0
03 21.04 ЮВ 2 24 км 5/5 300 м
[]
-22.4 -26.1 72 -27 -27 1014.1 1004.8
06 21.04 ЮВ 4 24 км ледяные иглы {снег} 3/3 200 м
[St]
-24.0 -27.5 73 -33 -33 опасность
обморожения
1013.9 1004.6 0.0 71
09 21.04 ЮВ 4 24 км ясно -23.6 -26.8 75 -33 -33 опасность
обморожения
1013.9 1004.6
12 21.04 ЮВ 4 24 км ледяные иглы {снег} ясно -22.4 -26.0 72 -31 -31 опасность
обморожения
1013.7 1004.4 -24.9 0.0
15 21.04 В 2 24 км ясно -19.0 -24.3 63 -25 -22 1013.7 1004.5
18 21.04 СЗ 1 24 км {снег} ясно -15.2 -23.5 49 -18 -12 1013.6 1004.4 -24.9 -14.6 0.0
21 21.04 СЗ 3 24 км ясно -19.9 -24.0 70 -28 -24 1013.7 1004.4
00 22.04 СЗ 4 24 км ясно -21.8 -25.6 71 -31 -30 опасность
обморожения
1013.8 1004.5 -24.9 -14.6
03 22.04 С 6 24 км 3/3 600 м
[]
-26.7 -30.2 72 -39 -39 опасность
обморожения
1013.8 1004.5
06 22.04 СЗ 7 20 км ледяные иглы 3/3 50 м
[St Ac trans]
-29.0 -32.6 71 -43 -43 опасность
обморожения
1013.0 1003.7 -29.1 -14.6 0.0 4
09 22.04 СЗ 5 16 км 4/4 300 м
[]
-29.8 -33.4 71 -42 -42 опасность
обморожения
1013.2 1003.9
12 22.04 СЗ 8 11 км слабый снег 8/8 600 м
[Sc]
-28.5 -32.1 71 -44 -44 опасность
обморожения
1013.5 1004.2 -30.6 -14.6 0.0 31
15 22.04 СЗ 6 24 км 10/0 2000 м
[]
-25.3 -29.0 71 -37 -37 опасность
обморожения
1013.3 1003.9
18 22.04 СЗ 7 24 км слабый снег 5/0 2000 м
[Ac trans]
-23.4 -27.5 69 -36 -35 опасность
обморожения
1014.0 1004.6 -30.6 -23.4 0.0
21 22.04 СЗ 7 24 км ясно -21.6 -25.6 70 -34 -33 опасность
обморожения
1014.3 1004.9
00 23.04 СЗ 7 24 км ледяные иглы {снег} 1/1 1000 м
[Sc Ci fib]
-22.3 -26.1 71 -35 -35 опасность
обморожения
1014.4 1005.1 -30.6 -21.5 0.0
03 23.04 СЗ 8 24 км 6/6 1000 м
[]
-25.9 -29.4 72 -40 -40 опасность
обморожения
1013.8 1004.5
06 23.04 СЗ 7 24 км ледяные иглы {снег} 8/8 1500 м
[Sc Ac trans]
-27.7 -31.1 73 -42 -42 опасность
обморожения
1013.2 1003.9 -30.6 -21.5 0.0 211
09 23.04 СЗ 6 14 км 9/9 1000 м
[]
-27.6 -31.2 71 -40 -40 опасность
обморожения
1012.9 1003.6
12 23.04 СЗ 4 16 км слабый снег 10/0 1500 м
[Sc Ac trans]
-27.3 -30.9 71 -38 -38 опасность
обморожения
1012.6 1003.3 -29.1 -21.5 0.0 31
15 23.04 СЗ 6 24 км 10/0 2000 м
[]
-25.3 -29.0 71 -37 -37 опасность
обморожения
1011.6 1002.3
18 23.04 СЗ 6 24 км {снег} 1/0 2000 м
[Ac trans]
-23.3 -27.4 69 -35 -33 опасность
обморожения
1010.9 1001.6 -29.1 -23.3 0.0
21 23.04 СЗ 7 24 км ясно -21.1 -24.9 71 -33 -32 опасность
обморожения
1010.5 1001.2
00 24.04 З 5 24 км 5/5 1500 м
[Sc]
-21.1 -24.8 72 -31 -31 опасность
обморожения
1009.9 1000.6 -29.1 -20.5
03 24.04 СЗ 5 8000 м 10/10 1000 м
[]
-22.9 -26.0 76 -34 -34 опасность
обморожения
1008.8 999.5
06 24.04 СЗ 7 4800 м слабый снег 10/8 1500 м
[Sc Ac trans]
-22.2 -25.2 77 -34 -34 опасность
обморожения
1007.7 998.5 -29.1 -20.5 0.4 6
09 24.04 СЗ 4 4800 м 10/10 1000 м
[]
-22.1 -25.1 77 -31 -31 опасность
обморожения
1007.4 998.2

 

Местоположение метеостанции Resolute Airport (Канада): широта 74.72 долгота -94.98 высота над уровнем моря 67 м.

В архиве по умолчанию представлена погода в Resolute Airport за последнюю неделю. Архивные данные за месяц целиком и за предыдущие месяцы, начиная с января 2011 года, Вы можете получить, выбрав интересующий диапазон дат из раскрывающегося списка и нажав кнопку "Ввод!".


*Определитесь, кто Вы:
робот инопланетянин человек

Внимание! Время в таблицах - всемирное. Для получения местного времени необходимо прибавить поправку, которая в Resolute Airport равна -6 ч.

Смотрите также архив погоды в соседних городах и на ближайших метеорологических станциях:

Погода в Resolute Cs (Канада) (1 км)
Погода в Stefansson Island (Канада) (326 км)
Погода в Arctic Bay (Канада) (362 км)
Погода в Isachsen (aut) (Канада) (500 км)
Погода в Pond Inlet Airport (Канада) (574 км)
Погода в Pond Inlet Climate (Канада) (575 км)
Погода в Spence bay (Канада) (577 км)
Погода в Chris Hadfield (Канада) (599 км)
Погода в Eureka (Канада) (623 км)
Погода в Eureka Climate (Канада) (624 км)

Пояснения к столбцам:

Ветер - указаны скорость ветра в м/с - средняя за 10 мин, порывы в срок и между сроками (в фигурных скобках) и направление, откуда дует ветер: С - северный, СВ - северо-восточный, В - восточный, ЮВ - юго-восточный, Ю - южный, ЮЗ - юго-западный, З - западный, СЗ - северо-западный.
Видимость - горизонтальная дальность видимости в метрах или километрах. При видимости от 1 до 10 км при отсутствии осадков обычно наблюдается дымка, при ухудшении видимости до 1 км и менее - туман. В сухую погоду видимость может ухудшаться дымом, пылью или мглою.
Явления - указаны атмосферные явления, наблюдавшиеся в срок или в последний час перед сроком; фигурными скобками обозначены явления, наблюдавшиеся между сроками (за 1-3 часа до срока); квадратными скобками обозначены град или гололедные отложения с указанием их диаметра в мм.
Облачность - указаны через наклонную черту общая и нижняя облачность в баллах и высота нижней границы облаков в метрах; квадратными скобками обозначены формы облаков: Ci - перистые, Cs - перисто-слоистые, Cc - перисто-кучевые, Ac - высококучевые, As - высокослоистые, Sc - слоисто-кучевые, Ns - слоисто-дождевые, Cu - кучевые, Cb - кучево-дождевые. Подробнее классификацию облаков см. в Атласе облаков (PDF).
T - Температура воздуха - температура, измеренная на высоте 2 м над землей.
Td - Температура точки росы - температура, при понижении до которой содержащийся в воздухе водяной пар достигнет насыщения.
f - Относительная влажность воздуха - влажноcть воздуха, измеренная на высоте 2 м над землей.
Te - Эффективная температура - температура, которую ощущает одетый по сезону человек в тени. Характеристика душности погоды. При расчете учитывается влияние влажности воздуха и скорости ветра на теплоощущения человека.
Tes - Эффективная температура на солнце - температура, которую ощущает человек, с поправкой на солнечный нагрев. Характеристика знойности погоды. Зависит от высоты солнца над горизонтом, облачности и скорости ветра. Ночью, в пасмурную погоду, а также при ветре 12 м/с и более поправка равна нулю.
P - Атмосферное давление - приведенное к уровню моря атмосферное давление.
Po - Атмосферное давление - измеренное на уровне метеостанции атмосферное давление.
Tmin - Минимальная температура - минимум температуры воздуха на высоте 2 м над землей.
Tmax - Максимальная температура - максимум температуры воздуха на высоте 2 м над землей.
R - Количество осадков - Количество выпавших осадков за период времени, мм. При наведении курсора мыши на число - период времени, за который выпало указанное количество осадков.
R24 - Количество осадков - Количество выпавших осадков за 24 часа, мм.
S - Снежный покров - Высота снежного покрова, см. При наведении курсора мыши на число - состояние снежного покрова и степень покрытия местности в баллах.